TVS161P LKPR-LZIB

Flight info

Callsign TVS161P
Flight time 0h 48m
Altitude 29000
Route VOZ DCT LIKSA DCT PEPIK DCT BERVA
Aircraft B38M/M-SDE3FGHIJ1J3J4J7M3P2RWXY/LB1D1

Departure

Time 2026-05-05 16:08
Airport Václav Havel Airport Prague (LKPR)

Arrival

Time 2026-05-05 16:56
Airport M. R. Štefánik Airport (LZIB)
Time Latitude Longitude Altitude Speed Heading
2026-05-05 15:47 50.10685 14.26410 1177 ft 0 kts 214°
2026-05-05 15:58 50.10706 14.26433 1178 ft 4 kts 214°
2026-05-05 15:58 50.10727 14.26456 1174 ft 3 kts 220°
2026-05-05 15:59 50.10736 14.26472 1174 ft 2 kts 243°
2026-05-05 15:59 50.10738 14.26488 1174 ft 2 kts 289°
2026-05-05 15:59 50.10733 14.26503 1175 ft 2 kts 304°
2026-05-05 15:59 50.10731 14.26508 1175 ft 0 kts 305°
2026-05-05 16:02 50.10736 14.26498 1174 ft 3 kts 305°
2026-05-05 16:02 50.10762 14.26440 1179 ft 10 kts 304°
2026-05-05 16:03 50.10813 14.26316 1178 ft 17 kts 287°
2026-05-05 16:03 50.10767 14.26213 1179 ft 14 kts 212°
2026-05-05 16:03 50.10670 14.26110 1179 ft 20 kts 214°
2026-05-05 16:03 50.10545 14.25985 1184 ft 15 kts 209°
2026-05-05 16:04 50.10486 14.26005 1187 ft 10 kts 132°
2026-05-05 16:04 50.10432 14.26117 1189 ft 16 kts 127°
2026-05-05 16:04 50.10350 14.26288 1193 ft 23 kts 127°
2026-05-05 16:04 50.10251 14.26493 1197 ft 24 kts 126°
2026-05-05 16:05 50.10151 14.26702 1200 ft 23 kts 127°
2026-05-05 16:05 50.10053 14.26906 1204 ft 24 kts 127°
2026-05-05 16:05 50.09949 14.27118 1209 ft 25 kts 127°
2026-05-05 16:05 50.09843 14.27332 1207 ft 25 kts 134°
2026-05-05 16:06 50.09714 14.27529 1209 ft 27 kts 136°
2026-05-05 16:06 50.09573 14.27739 1212 ft 29 kts 135°
2026-05-05 16:06 50.09434 14.27959 1219 ft 29 kts 134°
2026-05-05 16:06 50.09292 14.28179 1227 ft 29 kts 135°
2026-05-05 16:07 50.09156 14.28279 1235 ft 20 kts 207°
2026-05-05 16:07 50.09098 14.28093 1237 ft 23 kts 281°
2026-05-05 16:07 50.09127 14.28006 1242 ft 6 kts 307°
2026-05-05 16:07 50.09362 14.27521 1223 ft 114 kts 307°
2026-05-05 16:08 50.10021 14.26156 1462 ft 188 kts 309°
2026-05-05 16:08 50.10873 14.24412 2481 ft 215 kts 312°
2026-05-05 16:08 50.11851 14.22495 3730 ft 233 kts 311°
2026-05-05 16:08 50.12872 14.20444 4854 ft 245 kts 309°
2026-05-05 16:09 50.13931 14.18306 5651 ft 259 kts 309°
2026-05-05 16:09 50.15048 14.16009 6651 ft 270 kts 307°
2026-05-05 16:09 50.16231 14.13597 7591 ft 291 kts 307°
2026-05-05 16:09 50.17426 14.10928 8601 ft 304 kts 298°
2026-05-05 16:10 50.18048 14.07792 9795 ft 307 kts 270°
2026-05-05 16:10 50.17635 14.04544 10868 ft 310 kts 244°
2026-05-05 16:10 50.16401 14.01744 11781 ft 321 kts 227°
2026-05-05 16:10 50.14655 13.99479 12696 ft 331 kts 212°
2026-05-05 16:11 50.12549 13.98058 13898 ft 332 kts 192°
2026-05-05 16:11 50.06418 14.02542 16849 ft 361 kts 128°
2026-05-05 16:12 50.05001 14.05791 17905 ft 364 kts 129°
2026-05-05 16:12 50.01651 14.11851 19366 ft 379 kts 136°
2026-05-05 16:13 49.96082 14.20824 21788 ft 391 kts 138°
2026-05-05 16:13 49.94165 14.23849 22581 ft 396 kts 138°
2026-05-05 16:13 49.92221 14.26903 23336 ft 400 kts 138°
2026-05-05 16:14 49.88259 14.33114 24576 ft 410 kts 138°
2026-05-05 16:14 49.84202 14.39463 25773 ft 419 kts 138°
2026-05-05 16:15 49.80056 14.45936 26930 ft 428 kts 138°
2026-05-05 16:15 49.75818 14.52537 28050 ft 437 kts 138°
2026-05-05 16:16 49.71523 14.59208 28957 ft 447 kts 138°
2026-05-05 16:16 49.67107 14.66051 29011 ft 449 kts 138°
2026-05-05 16:17 49.60475 14.76302 29017 ft 450 kts 138°
2026-05-05 16:18 49.53867 14.86570 29006 ft 452 kts 134°
2026-05-05 16:18 49.50758 14.95025 29023 ft 456 kts 119°
2026-05-05 16:19 49.49337 14.99386 29009 ft 456 kts 119°
2026-05-05 16:19 49.45053 15.12449 29009 ft 456 kts 119°
2026-05-05 16:20 49.39316 15.29842 29004 ft 456 kts 119°
2026-05-05 16:22 49.32107 15.51527 28997 ft 457 kts 119°
2026-05-05 16:23 49.26311 15.68830 29000 ft 456 kts 119°
2026-05-05 16:23 49.21972 15.81708 28996 ft 456 kts 119°
2026-05-05 16:24 49.19041 15.90370 29017 ft 455 kts 119°
2026-05-05 16:25 49.14682 16.03204 29026 ft 455 kts 120°
2026-05-05 16:25 49.10289 16.16059 29032 ft 455 kts 120°
2026-05-05 16:26 49.07358 16.24606 28825 ft 450 kts 120°
2026-05-05 16:26 49.04499 16.32916 27782 ft 435 kts 120°
2026-05-05 16:27 49.03103 16.36965 27251 ft 429 kts 120°
2026-05-05 16:27 49.01720 16.40966 26733 ft 424 kts 120°
2026-05-05 16:27 49.00354 16.44915 26255 ft 418 kts 120°
2026-05-05 16:27 48.99003 16.48812 25751 ft 414 kts 120°
2026-05-05 16:28 48.97663 16.52675 25248 ft 411 kts 120°
2026-05-05 16:28 48.96333 16.56498 24759 ft 407 kts 120°
2026-05-05 16:28 48.95014 16.60289 24285 ft 404 kts 120°
2026-05-05 16:28 48.93700 16.64058 23805 ft 401 kts 120°
2026-05-05 16:29 48.92398 16.67788 23338 ft 399 kts 120°
2026-05-05 16:29 48.91100 16.71500 22799 ft 396 kts 120°
2026-05-05 16:29 48.89813 16.75175 22318 ft 392 kts 120°
2026-05-05 16:29 48.88555 16.78763 21882 ft 388 kts 120°
2026-05-05 16:30 48.87291 16.82362 21450 ft 384 kts 121°
2026-05-05 16:30 48.86042 16.85918 21019 ft 380 kts 121°
2026-05-05 16:30 48.84803 16.89436 20595 ft 376 kts 121°
2026-05-05 16:30 48.83574 16.92921 20178 ft 373 kts 121°
2026-05-05 16:31 48.82348 16.96394 19762 ft 376 kts 121°
2026-05-05 16:31 48.81104 16.99913 19348 ft 379 kts 121°
2026-05-05 16:31 48.79860 17.03433 18943 ft 378 kts 121°
2026-05-05 16:31 48.78620 17.06936 18526 ft 376 kts 121°
2026-05-05 16:32 48.77385 17.10414 18092 ft 373 kts 122°
2026-05-05 16:32 48.76162 17.13856 17662 ft 369 kts 121°
2026-05-05 16:32 48.74953 17.17256 17255 ft 364 kts 122°
2026-05-05 16:32 48.73761 17.20606 16865 ft 359 kts 122°
2026-05-05 16:33 48.72582 17.23912 16480 ft 354 kts 121°
2026-05-05 16:33 48.71419 17.27171 16102 ft 350 kts 122°
2026-05-05 16:33 48.70268 17.30393 15724 ft 346 kts 122°
2026-05-05 16:33 48.69127 17.33581 15354 ft 344 kts 122°
2026-05-05 16:34 48.67980 17.36782 14970 ft 348 kts 122°
2026-05-05 16:34 48.66822 17.40011 14599 ft 349 kts 122°
2026-05-05 16:34 48.65666 17.43233 14235 ft 348 kts 122°
2026-05-05 16:34 48.64902 17.45357 13981 ft 346 kts 122°
2026-05-05 16:35 48.63757 17.48539 13606 ft 342 kts 122°
2026-05-05 16:35 48.62625 17.51682 13185 ft 338 kts 123°
2026-05-05 16:35 48.61368 17.54601 12919 ft 324 kts 136°
2026-05-05 16:35 48.59782 17.56992 12786 ft 325 kts 138°
2026-05-05 16:36 48.58190 17.59455 12658 ft 330 kts 139°
2026-05-05 16:36 48.56553 17.61898 12493 ft 329 kts 144°
2026-05-05 16:36 48.54584 17.63530 12274 ft 321 kts 163°
2026-05-05 16:36 48.52488 17.64682 12059 ft 318 kts 163°
2026-05-05 16:37 48.50447 17.65822 11826 ft 306 kts 163°
2026-05-05 16:37 48.48506 17.66885 11549 ft 290 kts 164°
2026-05-05 16:37 48.46627 17.67899 11268 ft 285 kts 163°
2026-05-05 16:37 48.44761 17.68895 10980 ft 284 kts 164°
2026-05-05 16:38 48.42901 17.69881 10702 ft 283 kts 164°
2026-05-05 16:38 48.41049 17.70862 10425 ft 282 kts 164°
2026-05-05 16:38 48.39210 17.71834 10147 ft 278 kts 164°
2026-05-05 16:38 48.37394 17.72793 9906 ft 275 kts 164°
2026-05-05 16:39 48.35622 17.73727 9679 ft 272 kts 164°
2026-05-05 16:39 48.33843 17.74664 9424 ft 270 kts 164°
2026-05-05 16:39 48.32071 17.75597 9182 ft 268 kts 164°
2026-05-05 16:39 48.30314 17.76520 8929 ft 267 kts 165°
2026-05-05 16:40 48.28554 17.77380 8686 ft 264 kts 172°
2026-05-05 16:40 48.26768 17.77258 8443 ft 257 kts 199°
2026-05-05 16:40 48.25226 17.75971 8209 ft 255 kts 220°
2026-05-05 16:40 48.23915 17.74182 7974 ft 255 kts 222°
2026-05-05 16:41 48.22615 17.72382 7748 ft 254 kts 223°
2026-05-05 16:41 48.21328 17.70566 7508 ft 254 kts 223°
2026-05-05 16:41 48.20051 17.68746 7281 ft 253 kts 223°
2026-05-05 16:41 48.18782 17.66921 7055 ft 252 kts 223°
2026-05-05 16:42 48.17522 17.65099 6826 ft 252 kts 224°
2026-05-05 16:42 48.16266 17.63276 6604 ft 251 kts 224°
2026-05-05 16:42 48.15023 17.61468 6384 ft 247 kts 224°
2026-05-05 16:42 48.13798 17.59689 6154 ft 243 kts 224°
2026-05-05 16:43 48.12597 17.57942 5926 ft 239 kts 223°
2026-05-05 16:43 48.11415 17.56226 5692 ft 235 kts 223°
2026-05-05 16:43 48.10311 17.54447 5455 ft 233 kts 236°
2026-05-05 16:43 48.09865 17.52121 5212 ft 239 kts 266°
2026-05-05 16:44 48.10309 17.49712 4958 ft 247 kts 297°
2026-05-05 16:44 48.11455 17.47766 4717 ft 250 kts 311°
2026-05-05 16:44 48.12675 17.45920 4489 ft 249 kts 310°
2026-05-05 16:44 48.13886 17.44052 4227 ft 250 kts 309°
2026-05-05 16:45 48.15138 17.42241 3962 ft 253 kts 320°
2026-05-05 16:45 48.16780 17.41278 3694 ft 259 kts 352°
2026-05-05 16:45 48.18552 17.41603 3417 ft 258 kts 23°
2026-05-05 16:45 48.20023 17.43080 3162 ft 254 kts 47°
2026-05-05 16:46 48.21306 17.44897 2884 ft 254 kts 47°
2026-05-05 16:46 48.22589 17.46722 2630 ft 254 kts 47°
2026-05-05 16:46 48.23856 17.48540 2548 ft 251 kts 48°
2026-05-05 16:46 48.25107 17.50347 2501 ft 248 kts 47°
2026-05-05 16:47 48.26331 17.52126 2498 ft 249 kts 47°
2026-05-05 16:47 48.27573 17.53930 2498 ft 249 kts 47°
2026-05-05 16:47 48.28834 17.55761 2488 ft 248 kts 48°
2026-05-05 16:47 48.30102 17.57455 2465 ft 249 kts 35°
2026-05-05 16:48 48.31790 17.58119 2491 ft 252 kts 356°
2026-05-05 16:48 48.33389 17.57275 2507 ft 248 kts 321°
2026-05-05 16:48 48.34634 17.55521 2523 ft 245 kts 311°
2026-05-05 16:48 48.35798 17.53663 2490 ft 242 kts 305°
2026-05-05 16:49 48.36375 17.51494 2489 ft 212 kts 267°
2026-05-05 16:49 48.36046 17.49508 2476 ft 186 kts 235°
2026-05-05 16:49 48.35279 17.48062 2536 ft 173 kts 224°
2026-05-05 16:49 48.34463 17.46746 2508 ft 171 kts 223°
2026-05-05 16:50 48.33635 17.45455 2519 ft 172 kts 222°
2026-05-05 16:50 48.32800 17.44186 2507 ft 171 kts 223°
2026-05-05 16:50 48.31958 17.42925 2493 ft 171 kts 223°
2026-05-05 16:50 48.31113 17.41672 2479 ft 171 kts 222°
2026-05-05 16:51 48.30263 17.40415 2500 ft 172 kts 221°
2026-05-05 16:51 48.29411 17.39168 2509 ft 171 kts 221°
2026-05-05 16:51 48.28561 17.37932 2481 ft 167 kts 221°
2026-05-05 16:51 48.27804 17.36839 2506 ft 135 kts 220°
2026-05-05 16:52 48.27145 17.35896 2548 ft 128 kts 220°
2026-05-05 16:52 48.26506 17.34987 2522 ft 126 kts 219°
2026-05-05 16:52 48.25866 17.34074 2399 ft 128 kts 219°
2026-05-05 16:52 48.25224 17.33152 2266 ft 128 kts 220°
2026-05-05 16:53 48.24590 17.32232 2098 ft 126 kts 219°
2026-05-05 16:53 48.23958 17.31320 1929 ft 126 kts 219°
2026-05-05 16:53 48.23328 17.30413 1792 ft 125 kts 220°
2026-05-05 16:53 48.22692 17.29491 1629 ft 129 kts 219°
2026-05-05 16:54 48.22052 17.28559 1458 ft 127 kts 218°
2026-05-05 16:54 48.21416 17.27642 1312 ft 127 kts 218°
2026-05-05 16:54 48.20786 17.26714 1191 ft 128 kts 219°
2026-05-05 16:54 48.20144 17.25772 1072 ft 131 kts 219°
2026-05-05 16:55 48.19485 17.24832 930 ft 135 kts 219°
2026-05-05 16:55 48.18800 17.23852 736 ft 136 kts 219°
2026-05-05 16:55 48.18138 17.22887 528 ft 128 kts 218°
2026-05-05 16:55 48.17534 17.22014 447 ft 109 kts 218°
2026-05-05 16:56 48.17082 17.21383 442 ft 60 kts 225°
2026-05-05 16:56 48.16881 17.21087 438 ft 30 kts 224°
2026-05-05 16:56 48.16726 17.20876 446 ft 30 kts 222°
2026-05-05 16:56 48.16583 17.20659 446 ft 13 kts 235°
2026-05-05 16:57 48.16602 17.20536 446 ft 16 kts 319°
2026-05-05 16:57 48.16718 17.20360 440 ft 31 kts 313°
2026-05-05 16:57 48.16832 17.20184 439 ft 24 kts 313°
2026-05-05 16:57 48.16885 17.20068 444 ft 0 kts 310°